RH
70 69 63 60 60 62 69 70 69 64 63 63 65 67 63 60 58 56 56 55 50 53 61 83 92 96 99 95 92 92 88 89 90 90 90 90 91 90 90 90 91 88 90
77 74 72 60 61 65 70 72 72 72 71 70 69 68 67 67 67 66 64 59 56 51 52 55 81 90 88 91 92 92 91 91 91 91 91 92 93 88 92 90 90 90 88
84 78 76 73 63 69 71 72 74 76 76 76 75 71 70 70 70 71 72 69 66 66 61 56 53 85 90 87 88 91 92 89 92 91 90 91 92 91 90 92 90 90 89
84 83 80 79 78 74 76 75 74 74 74 73 72 70 71 72 73 73 73 74 73 71 70 72 65 54 80 89 89 88 90 94 88 88 89 85 89 90 88 90 89 90 88
85 84 79 78 78 81 80 80 78 77 74 72 72 73 72 73 74 74 74 74 75 76 74 73 76 69 55 63 88 86 87 91 96 88 86 86 86 87 88 87 88 89 88
85 85 84 82 80 80 81 80 82 78 79 77 75 75 74 74 76 76 70 70 68 74 76 79 80 79 72 57 62 88 85 87 92 96 94 90 88 87 86 85 86 86 86
83 85 85 86 90 90 83 83 83 83 82 81 85 78 75 76 73 67 67 66 67 71 72 75 77 75 72 73 63 62 86 86 88 92 96 94 91 89 86 83 83 84 83
99 99 99 98 96 96 95 94 93 92 90 89 88 89 77 52 53 66 66 66 63 64 66 68 70 70 73 72 72 76 75 89 89 89 95 97 95 92 89 84 80 81 82
100 99 98 100 100 100 99 98 99 100 100 96 94 89 77 58 62 60 63 61 62 65 65 70 72 73 75 76 80 72 63 74 86 96 91 91 99 97 94 87 81 78 81
54 58 64 70 80 93 98 99 100 98 100 99 100 96 95 92 84 80 73 67 69 70 72 71 74 76 78 79 83 86 71 64 64 79 96 93 93 99 98 93 85 84 85
52 51 52 54 62 67 87 90 95 100 98 100 100 98 99 98 100 99 95 81 80 70 66 69 75 78 81 84 89 89 75 76 76 81 91 90 88 94 98 98 92 90 82
73 65 64 64 65 67 78 83 96 99 98 100 100 100 100 94 91 92 96 90 83 82 72 78 76 81 85 85 81 76 76 74 75 97 100 99 94 96 99 97 96 95 94
80 78 67 67 66 65 66 86 96 98 97 96 97 99 100 99 100 96 99 96 92 91 83 78 79 80 81 84 87 77 76 77 77 83 99 100 100 100 99 98 99 98 92
76 72 70 68 65 64 67 89 97 100 91 98 100 100 100 100 100 100 98 94 94 88 87 75 94 96 97 91 84 84 87 85 84 84 96 99 98 92 91 85 93 100 99
73 72 70 69 68 68 70 81 96 100 98 99 100 100 100 100 100 98 100 100 86 81 66 87 93 91 95 94 82 82 92 100 98 99 79 99 96 98 98 98 92 100 99
71 73 74 74 74 74 75 82 96 99 100 99 94 98 99 100 100 99 99 99 100 95 84 98 99 98 90 95 91 94 95 98 99 98 100 100 95 87 87 79 77 100 98
81 83 82 82 82 83 85 91 95 96 97 98 99 99 99 100 100 100 99 100 100 100 98 100 100 92 91 98 98 98 97 98 99 100 99 100 99 98 97 97 97 98 100
91 90 88 89 89 89 90 91 93 94 95 97 96 95 96 97 98 98 99 96 92 90 99 96 99 98 92 97 99 100 99 97 97 97 97 100 100 97 94 88 89 92 90
93 93 92 92 94 97 97 96 93 92 92 92 92 91 94 94 97 98 98 99 99 97 99 94 97 100 100 100 99 100 100 100 98 87 87 89 92 96 96 94 93 91 89
96 96 97 96 100 99 100 100 99 99 99 98 98 98 96 97 99 98 98 96 93 90 89 87 93 98 98 100 99 91 82 78 75 73 73 75 84 87 93 95 94 94 94
99 99 100 100 100 100 100 99 100 100 99 99 99 98 97 93 93 96 89 85 80 76 81 83 80 79 73 68 69 68 65 63 63 67 61 60 60 61 63 66 75 88 90
99 99 100 100 100 100 100 97 98 95 94 91 88 86 81 72 62 70 57 63 76 70 68 68 65 52 56 59 60 64 67 58 56 68 60 50 54 48 49 51 51 38 40
100 100 100 100 98 98 86 79 75 70 61 49 44 56 70 72 64 62 49 49 59 88 61 62 54 57 57 67 75 86 72 69 62 57 64 49 50 44 52 57 63 49 43
98 98 91 86 81 75 32 27 28 29 33 39 51 70 70 74 86 75 68 64 64 77 85 80 77 80 82 84 83 90 85 72 63 65 71 61 57 60 65 66 70 56 57
96 78 68 68 69 76 37 31 33 44 53 59 65 74 71 70 85 84 73 72 48 54 65 66 67 66 72 73 84 76 78 71 61 57 75 78 75 77 75 73 74 70 86
70 65 65 65 75 70 50 43 40 52 48 52 55 58 59 81 86 80 71 58 47 59 72 72 56 53 56 64 56 76 77 86 76 75 85 89 89 85 83 77 85 81 75
Wind_Speed
5 6 6 6 5 5 6 5 6 6 6 7 8 8 8 8 9 9 9 12 11 11 11 11 10 11 10 9 8 7 6 5 5 4 3 3 3 3 2 2 3 3 3
6 6 6 6 6 6 6 6 6 6 6 7 8 9 10 10 10 10 10 11 13 13 13 14 13 13 13 12 11 10 9 8 7 6 6 5 5 6 5 5 4 3 3
7 7 7 7 6 6 7 7 8 8 8 9 10 10 11 11 12 11 12 12 12 14 15 16 16 16 15 15 14 12 12 11 9 9 8 8 8 7 7 7 6 6 6
9 8 8 8 8 8 8 9 9 10 11 11 12 12 12 12 13 13 14 14 13 13 14 17 18 19 18 17 17 15 15 15 14 11 11 11 10 10 9 8 8 8 7
10 10 10 10 10 11 11 11 11 12 13 13 14 14 14 15 15 14 16 16 16 16 15 16 21 20 21 21 19 19 18 17 18 17 15 14 14 13 12 12 11 9 9
12 12 12 13 12 13 14 13 14 13 14 14 15 15 16 16 16 15 16 15 15 13 13 14 14 15 18 22 24 22 21 20 20 21 19 18 17 17 16 15 14 13 12
13 13 14 14 13 14 15 14 14 14 15 14 12 14 14 12 14 15 12 11 11 9 9 9 10 12 14 18 21 25 24 23 22 22 23 22 21 20 20 19 17 16 14
13 13 14 15 14 15 15 14 14 14 13 12 8 5 5 10 14 8 7 6 9 8 6 7 8 9 11 11 14 19 22 26 25 24 23 26 25 23 22 21 19 18 16
13 14 15 17 16 17 19 19 18 16 14 11 14 9 4 7 3 7 7 8 7 5 5 7 8 8 8 9 12 14 17 22 25 25 26 25 27 26 25 24 22 20 18
8 9 10 10 10 10 12 13 13 16 17 15 12 16 17 8 4 4 3 6 4 6 4 8 9 8 8 7 9 10 13 15 18 22 24 27 27 27 32 26 23 21 20
7 7 8 9 9 10 9 11 12 12 16 18 16 9 12 11 11 6 2 6 6 8 12 10 8 8 6 6 7 9 14 15 15 17 20 24 27 28 25 27 26 23 22
4 5 6 6 7 8 9 10 9 10 14 14 17 18 13 5 8 6 4 7 7 8 8 5 7 8 7 7 9 11 11 11 12 13 16 19 22 24 27 31 28 27 26
3 6 7 8 8 10 10 9 9 10 11 14 16 18 18 16 10 9 6 3 6 4 4 6 4 5 5 6 8 11 12 13 13 13 14 16 19 20 19 25 32 30 27
4 6 7 7 8 9 9 8 7 7 9 9 9 10 10 10 8 6 5 4 2 4 5 6 2 1 4 8 10 14 11 12 13 16 15 13 16 20 28 31 30 27 24
5 6 6 6 7 7 7 6 4 5 5 5 4 4 4 3 4 5 5 4 5 3 6 1 2 3 6 7 9 10 9 7 10 16 10 6 10 9 4 12 17 19 18
6 6 6 6 6 6 5 4 3 3 1 3 4 2 0 0 0 0 1 1 3 5 3 0 3 5 7 7 9 8 6 6 7 11 10 5 8 6 6 4 2 8 10
5 5 5 4 4 3 3 1 1 1 1 1 1 2 1 1 2 3 3 2 1 3 3 2 3 5 5 6 6 5 4 4 4 5 3 6 4 2 3 5 7 10 12
3 3 4 3 2 1 1 2 3 4 5 5 5 5 6 5 5 4 4 3 1 1 1 2 2 4 4 5 5 4 4 4 4 4 4 3 3 2 2 3 3 4 6
1 1 1 1 0 1 2 3 5 6 7 7 7 6 6 6 5 5 5 4 3 3 3 1 1 2 2 5 3 4 4 4 4 5 5 6 5 5 5 5 5 5 6
1 1 1 1 2 2 3 5 7 8 9 9 9 9 9 9 6 5 6 4 4 3 3 2 1 2 2 3 3 5 3 4 4 5 6 6 5 6 6 6 7 7 8
3 3 2 3 4 4 4 6 7 8 9 10 10 9 9 8 6 7 5 6 5 4 3 2 1 1 2 2 4 5 5 6 4 5 6 5 4 4 4 6 7 9 11
5 5 5 6 6 6 6 8 8 7 8 8 7 5 5 3 3 6 5 6 6 4 2 1 1 2 2 2 3 4 5 7 4 5 8 8 7 7 6 6 9 12 13
8 7 5 7 8 8 8 8 8 9 8 7 7 5 4 4 5 5 5 4 4 4 3 2 1 2 2 2 3 4 5 6 7 9 10 7 6 6 5 6 9 8 9
11 7 7 8 8 8 8 7 7 8 7 6 5 4 3 3 3 5 4 4 2 2 3 3 2 2 1 3 3 3 5 7 7 4 5 5 7 7 8 7 10 7 7
10 11 9 10 10 7 7 6 5 4 4 3 3 2 2 1 2 4 3 3 3 2 3 4 5 5 6 6 4 5 5 5 5 2 3 4 6 11 9 5 5 3 2
13 11 11 10 8 7 6 5 4 3 3 3 2 1 0 1 1 2 3 3 4 3 3 4 5 5 4 3 3 3 3 4 3 4 2 6 6 8 6 4 5 5 6
Wind_Direction
229 229 234 234 236 233 230 239 250 257 262 267 271 273 275 273 272 272 275 281 280 277 271 264 263 265 268 266 265 266 264 267 268 262 254 240 215 198 182 167 153 148 134
234 237 241 236 234 231 235 245 252 261 266 270 273 271 271 273 271 269 271 275 279 273 274 273 264 259 264 266 260 257 256 254 253 251 241 232 224 220 214 207 197 189 161
237 237 242 243 241 240 242 251 257 262 267 270 271 272 270 271 269 271 272 270 271 279 275 274 271 259 256 258 259 257 248 255 249 249 245 240 236 229 219 211 209 198 184
241 242 245 250 249 246 248 250 256 261 264 267 272 272 271 269 270 272 272 270 269 270 276 277 271 266 256 253 254 251 249 238 248 246 242 241 240 234 227 223 217 208 198
240 243 250 254 254 252 251 252 255 258 265 268 270 273 271 270 271 273 272 272 272 272 271 273 276 267 260 255 250 253 250 242 234 241 235 232 234 234 229 224 221 219 212
243 245 251 254 254 255 255 253 255 258 262 267 270 272 275 271 269 267 273 277 276 272 273 272 268 274 270 260 255 249 251 250 243 235 233 232 229 227 229 225 222 220 216
246 247 251 254 251 250 254 255 258 261 262 265 270 273 271 272 270 267 271 275 274 277 282 280 276 273 272 277 264 255 250 250 253 247 234 234 232 228 224 222 222 222 220
248 248 249 251 250 251 256 257 253 255 258 252 254 277 282 283 269 253 252 266 281 283 288 293 288 283 283 277 270 267 263 254 254 255 251 241 234 231 227 223 220 220 220
252 250 251 251 256 257 262 262 258 252 245 251 252 250 271 263 306 249 269 267 273 279 311 316 319 309 298 290 285 279 271 263 262 264 261 260 246 232 230 224 216 213 212
253 253 255 258 261 262 265 267 260 257 253 252 250 248 250 258 256 270 258 267 255 288 304 315 323 324 316 306 297 303 287 281 270 266 266 265 265 249 223 218 221 214 212
257 261 265 269 271 272 272 272 271 263 257 256 244 240 243 235 236 236 244 260 269 286 301 304 322 324 323 324 317 306 298 291 283 279 276 270 267 262 267 209 208 215 216
252 264 272 276 280 283 285 285 281 271 259 255 252 243 222 205 209 199 221 240 257 278 270 285 307 310 319 323 327 318 310 299 291 303 295 287 277 275 255 223 211 214 212
257 276 281 283 283 282 282 281 281 282 273 261 254 253 252 249 236 230 215 224 240 238 240 262 267 311 340 359 349 341 328 311 303 304 310 301 289 288 275 260 208 216 217
270 276 280 281 281 283 283 280 268 266 262 255 237 233 225 212 200 218 239 204 243 244 246 264 284 5 357 345 343 339 331 317 311 305 302 320 305 284 263 252 247 211 187
264 275 279 283 284 286 285 282 268 255 244 237 203 185 182 208 232 229 228 221 238 269 280 188 215 311 345 339 341 334 334 336 356 5 333 320 322 336 38 178 187 172 155
267 271 275 278 285 289 290 284 273 266 216 239 246 256 176 22 44 156 212 190 220 240 259 194 274 310 329 340 332 331 348 359 9 27 47 1 341 342 335 4 178 191 212
272 271 270 271 272 276 289 317 22 69 107 98 117 107 134 108 81 74 83 95 129 218 248 244 267 318 330 354 341 352 324 339 341 8 37 65 57 59 77 113 139 169 177
266 268 265 256 258 251 156 117 109 104 105 100 91 94 86 78 73 64 69 73 68 298 281 249 285 330 347 350 351 360 346 330 334 310 303 359 17 332 322 306 284 266 261
212 285 315 286 279 127 115 111 114 101 93 90 89 87 82 82 74 66 67 61 50 26 32 323 28 357 356 10 354 348 351 354 342 321 303 290 283 275 275 277 269 269 268
234 248 253 77 109 103 116 117 122 117 114 104 101 95 86 81 67 65 61 49 40 26 28 34 42 344 349 334 3 349 328 350 349 355 349 332 314 289 266 258 256 252 246
205 187 154 133 120 120 120 129 125 118 114 110 100 90 83 77 73 62 59 41 33 25 18 9 326 293 338 352 351 332 320 327 324 357 343 331 338 328 319 310 280 260 248
184 176 154 133 115 103 121 140 129 126 125 123 115 104 91 77 55 48 39 43 43 27 23 343 297 309 345 346 342 345 336 338 323 360 342 310 310 304 297 290 270 267 261
183 176 145 128 115 115 122 135 135 134 131 122 116 104 89 66 57 44 20 15 27 43 50 14 345 14 332 350 341 334 330 322 306 313 328 301 319 315 312 306 296 283 260
180 168 144 136 132 125 134 137 139 131 129 121 109 101 85 55 38 30 16 21 11 33 26 22 27 359 336 321 303 312 312 307 300 308 340 289 333 323 322 311 307 278 258
183 172 169 158 153 148 155 151 159 141 131 135 135 96 87 43 14 331 2 6 348 328 306 296 292 286 276 281 280 280 294 302 304 295 334 315 331 325 317 318 330 303 242
188 179 182 175 176 160 168 163 161 165 169 166 153 176 197 334 313 311 321 340 330 325 317 317 309 317 322 298 284 252 269 271 288 279 288 333 327 349 321 306 317 326 314